Regional Weather Roundup
Issued by NWS San Angelo, TX

Home | Current Version | Previous Version | Text Only | Print | Product List | Glossary On
Versions: 1 2 3 4 5 6 7 8 9 10 11 12 13 14 15 16 17 18 19 20 21 22 23 24 25 26 27 28 29 30 31 32 33 34 35 36 37 38 39 40 41 42 43 44 45 46 47 48 49 50
000
ASUS44 KSJT 241611
RWRSJT
WEST CENTRAL TEXAS REGIONAL WEATHER ROUNDUP
NATIONAL WEATHER SERVICE SAN ANGELO TX
1100 AM CDT WED AUG 24 2016

NOTE: "FAIR" INDICATES FEW OR NO CLOUDS BELOW 12,000 FEET WITH NO
SIGNIFICANT WEATHER AND/OR OBSTRUCTIONS TO VISIBILITY.

TXZ049-054-064>066-071>073-076>078-098-099-113-114-127-128-139-140-
154-155-168>170-241700
...LOCATIONS ACROSS WEST CENTRAL TEXAS...

CITY           SKY/WX    TMP DP  RH WIND       PRES   REMARKS
SAN ANGELO     PTSUNNY   83  67  58 SW12G21   30.15F
ABILENE        PTSUNNY   81  68  64 S18       30.15F
DYESS AFB      MOSUNNY   82  67  62 S15G24    30.12F
JUNCTION       MOSUNNY   83  67  58 S14G22    30.15S
SWEETWATER     MOSUNNY   81  67  61 S20G25    30.16F
BROWNWOOD      SUNNY     84  68  58 SW13      30.15R
COLEMAN        MOSUNNY   82  67  59 SW14      30.17R
SONORA         SUNNY     81  66  61 S13G20    30.20S
OZONA          FAIR      81  64  57 S13       30.19S
BRADY          NOT AVBL
$$

TEXAS PANHANDLE/OKLAHOMA PANHANDLE

CITY           SKY/WX    TMP DP  RH WIND       PRES   REMARKS
AMARILLO       CLOUDY    73  58  59 SW9       30.13S
BORGER         CLOUDY    78  59  51 SW13G22   30.09S
CANADIAN       PTSUNNY   80  66  61 S10       30.06R
DALHART        CLOUDY    74  56  53 S12       30.15R
DUMAS          CLOUDY    75  58  55 SW13      30.12S
GUYMON         NOT AVBL
HEREFORD       CLOUDY    74  59  59 W9        30.15S
PAMPA          PTSUNNY   80  59  49 W14       30.12R
PERRYTON       CLOUDY    78  63  59 SW18G25   30.07R
$$

SOUTHERN PANHANDLE/SOUTH PLAINS/ROLLING PLAINS

CITY           SKY/WX    TMP DP  RH WIND       PRES   REMARKS
LUBBOCK        CLOUDY    73  61  65 S14       30.12R
SNYDER           N/A     78  67  68 S12       30.12F
CHILDRESS      PTSUNNY   81  65  58 W8        30.06F
SEMINOLE       PTSUNNY   70  63  77 SW9       30.18R
$$

PERMIAN BASIN

CITY           SKY/WX    TMP DP  RH WIND       PRES   REMARKS
MIDLAND        SUNNY     78  63  59 SE6       30.15S
ODESSA         SUNNY     77  60  55 SE6       30.16S
WINK           PTSUNNY   70  64  81 SW7       30.15S
$$

FAR WEST/SOUTHWEST MOUNTAINS/TRANS PECOS

CITY           SKY/WX    TMP DP  RH WIND       PRES   REMARKS
ALPINE         CLOUDY    68  59  71 E10       30.30F
DRYDEN           N/A     79  69  71 NE7       30.12F
EL PASO        MOSUNNY   75  63  66 S8        30.16R
FORT STOCKTON  PTSUNNY   78  58  49 E10       30.17F
GUADALUPE PASS NOT AVBL
MARFA          LGT RAIN N/A N/A N/A MISG        N/A
PECOS          MOSUNNY   71  64  80 S8        30.16S
$$

DALLAS/FORT WORTH METROPLEX

CITY           SKY/WX    TMP DP  RH WIND       PRES   REMARKS
DFW AIRPORT    MOSUNNY   85  70  60 SW15      30.12S
FTW MEACHAM    SUNNY     87  71  58 S14       30.11F
DAL-EXECUTIVE  SUNNY     85  73  67 SW8       30.13R
GRAND PRAIRIE  SUNNY     82  70  65 SW12      30.14S
ADDISON        SUNNY     82  72  69 SW8G15    30.13S
MESQUITE       MOSUNNY   82  73  74 SW9       30.14R
LANCASTER      SUNNY     86  72  64 SW10      30.14R
$$

NORTH CENTRAL TEXAS

CITY           SKY/WX    TMP DP  RH WIND       PRES   REMARKS
SHRMAN/DENISON SUNNY     86  71  61 SW13      30.13S
GAINESVILLE      N/A     83  70  66 S15       30.13S
BRIDGEPORT     SUNNY     84  71  65 SW9       30.14R
DENTON         SUNNY     83  71  67 S10       30.11F
WAXAHACHIE     MOSUNNY   83  73  70 S14       30.14S
GRANBURY       SUNNY     87  70  56 S8G16     30.13S
$$

WESTERN NORTH TEXAS

CITY           SKY/WX    TMP DP  RH WIND       PRES   REMARKS
WICHITA FALLS  MOSUNNY   87  68  52 SW22G28   30.08R
VERNON         SUNNY     87  64  46 SW16G25   30.08S
BRECKENRIDGE   SUNNY     85  66  52 SW20G25   30.13R
COMANCHE       SUNNY     84  70  62 S12       30.15S
$$

CENTRAL AND SOUTH CENTRAL TEXAS

CITY           SKY/WX    TMP DP  RH WIND       PRES   REMARKS
AUSTIN/BERGSTM MOSUNNY   84  75  74 SW12      30.13S
WACO           MOSUNNY   85  72  65 S14       30.14R
HILLSBORO      MOSUNNY   83  72  68 SW12G17   30.14S
TEMPLE         MOSUNNY   86  73  66 S14       30.14S
KILLEEN-GRAY   SUNNY     84  72  66 S13       30.13S
FORT HOOD      SUNNY     84  71  66 S9        30.11S
GEORGETOWN     MOSUNNY   84  72  65 S13       30.13S
LAGO VISTA     FAIR      84  70  62 SW10G20   30.16S
SAN MARCOS     PTSUNNY   84  73  70 S13       30.16S
NEW BRAUNFELS  PTSUNNY   83  74  74 SW14      30.13S
RANDOLPH AFB   MOSUNNY   85  75  73 S13       30.14S
SAN ANTONIO    MOSUNNY   82  72  71 S12       30.14F
STINSON        PTSUNNY   86  74  67 SE10      30.12S
PLEASANTON     NOT AVBL
LA GRANGE      MOSUNNY   86  78  75 SW6       30.12S
GIDDINGS       MOSUNNY   83  74  72 SW9       30.19R
$$

EAST TEXAS

CITY           SKY/WX    TMP DP  RH WIND       PRES   REMARKS
PARIS          SUNNY     84  72  65 S12       30.14S
CLARKSVILLE    NOT AVBL
TYLER          SUNNY     85  72  65 SW14      30.15R
LONGVIEW       SUNNY     86  74  67 SW9       30.14S
PALESTINE      MOSUNNY   82  76  80 S7        30.17S
NACOGDOCHES    MOSUNNY  N/A N/A N/A SW7       30.15S
$$

TEXAS HILL COUNTRY AND EDWARDS PLATEAU

CITY           SKY/WX    TMP DP  RH WIND       PRES   REMARKS
LLANO          SUNNY     84  75  74 S12       30.17R
HORSESHOE BAY  FAIR      85  71  62 S5        30.14S
KERRVILLE      PTSUNNY   82  72  71 S17       30.17S
FREDERICKSBRG  SUNNY     81  67  62 S17G24    30.16S
ROCKSPRINGS    SUNNY     81  66  61 S14G24    30.20R
HONDO          MOSUNNY   85  72  65 S14       30.13F
UVALDE         SUNNY     82  71  69 S9G17     30.13S
DEL RIO        CLOUDY    81  71  71 SE14      30.09F
$$

SOUTHEAST TEXAS

CITY           SKY/WX    TMP DP  RH WIND       PRES   REMARKS
COLLEGE STN    MOSUNNY   85  76  74 S12       30.15R
CALDWELL       MOSUNNY   82  75  78 S8        30.18R
CROCKETT       LGT RAIN  84  84 100 SW8       30.18S
BRENHAM        MOSUNNY   88  74  63 S8        30.15S
HUNTSVILLE     MOSUNNY   87  73  62 S8        30.16R
CONROE         MOSUNNY   86  75  69 S10       30.15S
HOUSTON BUSH   MOSUNNY   87  77  72 S7        30.14R
HOUSTON HOBBY  PTSUNNY   89  77  67 S6        30.14R
PERLAND        SUNNY     90  75  61 SE7       30.15S
WHARTON        MOSUNNY   87  76  69 S8        30.14S
$$

THE UPPER TEXAS COAST

CITY           SKY/WX    TMP DP  RH WIND       PRES   REMARKS
ORANGE         MOSUNNY   89  71  55 S3        30.16S
PORT ARTHUR    MOSUNNY   90  76  63 S6        30.14S
GALVESTON      MOSUNNY   88  80  77 SE10      30.15R
ANGLETON       SUNNY     90  78  68 S8        30.13S
BAY CITY       SUNNY     89  75  63 S7        30.14R
$$

TEXAS COASTAL BEND, RIO GRANDE PLAINS DEEP SOUTH TEXAS

CITY           SKY/WX    TMP DP  RH WIND       PRES   REMARKS
VICTORIA       SUNNY     86  75  69 S10       30.13S
BEEVILLE       PTSUNNY   86  78  76 S15       30.12S
ROCKPORT       MOSUNNY   89  76  65 S10       30.11R
PORT ARANSAS   SUNNY     87  78  75 S9        30.12R
PORT LAVACA    SUNNY     88  78  72 S9        30.13R
CORPUS CHRISTI MOSUNNY   91  73  55 S12       30.10S
KINGSVILLE NAS MOSUNNY   89  77  67 S15       30.10S
COTULLA        SUNNY     87  71  58 SE13      30.10S
LAREDO         SUNNY     87  70  56 SE18G26   30.08
BROWNSVILLE    MOSUNNY   91  73  55 SE18      30.11R
PORT ISABEL    PTSUNNY   92  73  53 SE15G22   30.09S
HEBBRONVILLE   SUNNY     86  69  57 S15G22    30.11S
MCALLEN        SUNNY     91  72  53 S17G24    30.10R
WESLACO        SUNNY     84  27  12 S16G23    30.09S
FALFURRIAS     MOSUNNY   89  72  58 SE12G20   30.10R
EDINBURG       HAZE      91  71  51 S13       30.10S VSB<1/4
$$




USA.gov is the U.S. government's official web portal to all federal, state and local government web resources and services.